Flag for Germany Weather past 2 weeks in Burg, Saxony-Anhalt, Germany

Now
71 °F

Passing clouds.


Feels Like: 75 °F
Forecast: 41 / 54 °F
Wind: 5 mph from Northwest

Location: Magdeburg

Current Time: Apr 21, 2015 at 4:46:20 PM

Latest Report: Apr 21, 2015 at 4:00 PM


Visibility: 31 mi

Pressure: 30.27 "Hg

Humidity: 24%

Dew point: 32 °F

Location of BurgLocation

Historic Weather in Burg — Graph

°F

Burg temperature yesterday

Maximum temperature yesterday: 67 °F (at 4:00 PM)
Minimum temperature yesterday: 37 °F (at 6:00 AM)
Average temperature yesterday: 53 °F

Past Weeks' High & Low Weather Summary

 TemperatureHumidityPressure
High74 °F (Apr 15, 4:00 PM)95% (Apr 10, 7:00 AM)30.59 "Hg (Apr 10, 7:00 AM)
Low30 °F (Apr 7, 6:00 AM)23% (Apr 12, 4:00 PM)29.87 "Hg (Apr 15, 7:00 PM)
Average50 °F63%30.25 "Hg
* Reported Apr 6 4:00 PM — Apr 21 4:00 PM, Burg, Weather by CustomWeather, © 2015

Note: Actual official high and low records may vary slightly from our data, if they occured in-between our weather recording intervals... More about our weather records

Advertising

Burg weather history for previous 24 hours

 ConditionsComfort  
Time TempWeatherWind HumidityBarometerVisibility
4:00 PM
Tue, Apr 21
71 °FPassing clouds.5 mph24%30.27 "Hg31 mi
3:00 PM70 °FScattered clouds.6 mph24%30.29 "Hg31 mi
2:00 PM68 °FScattered clouds.6 mph23%30.30 "Hg31 mi
1:00 PM66 °FScattered clouds.6 mph33%30.32 "Hg31 mi
12:00 PM64 °FScattered clouds.5 mph39%30.33 "Hg31 mi
10:00 AM61 °FScattered clouds.3 mph44%30.34 "Hg31 mi
9:00 AM55 °FScattered clouds.3 mph55%30.35 "Hg31 mi
8:00 AM50 °FScattered clouds.3 mph64%30.34 "Hg31 mi
7:00 AM44 °FScattered clouds.2 mph72%30.35 "Hg28 mi
6:00 AM42 °FPassing clouds.3 mph77%30.35 "Hg28 mi
4:00 AM41 °FPassing clouds.2 mph82%30.37 "Hg22 mi
3:00 AM42 °FPassing clouds.2 mph78%30.37 "Hg28 mi
2:00 AM44 °FClear.2 mph74%30.36 "Hg37 mi
1:00 AM45 °FClear.1 mph71%30.35 "Hg43 mi
12:00 AM45 °FClear.1 mph70%30.36 "Hg43 mi
10:00 PM
Mon, Apr 20
52 °FPassing clouds.2 mph56%30.33 "Hg43 mi
9:00 PM56 °FPassing clouds.2 mph48%30.32 "Hg31 mi
8:00 PM61 °FPartly sunny.3 mph38%30.29 "Hg37 mi
7:00 PM64 °FPartly sunny.5 mph34%30.27 "Hg37 mi
6:00 PM66 °FPartly sunny.6 mph34%30.26 "Hg37 mi
4:00 PM67 °FPartly sunny.5 mph29%30.27 "Hg37 mi
Weather by CustomWeather, © 2015

See weather overviewHow to use our weather pages